Weather History for Chicago, IL

Change the Weather History Date:

Saturday, November 23, 2013

  Actual Average Record
Temperature  
Mean Temperature 21 °F 37 °F  
Max Temperature 26 °F 44 °F 69 °F (1931)
Min Temperature 15 °F 29 °F -1 °F (1950)
Degree Days  
Heating Degree Days 44 28  
Month to date heating degree days 550 527  
Since 1 July heating degree days 1014 1042  
Cooling Degree Days 0 0  
Month to date cooling degree days 0 0  
Year to date cooling degree days 933 843  
Moisture  
Dew Point 8 °F    
Average Humidity 62    
Maximum Humidity 81    
Minimum Humidity 42    
Precipitation  
Precipitation T in 0.11 in 1.55 in (1983)
Month to date precipitation 2.06 2.42  
Year to date precipitation 40.12 33.91  
Snow  
Snow T in 0.10 in 2.00 in (1981)
Month to date snowfall 0.4 0.6  
Since 1 July snowfall 0.4 0.9  
Since 1 September snowfall 0.4 0.9  
Snow Depth 0.00 in    
Sea Level Pressure  
Sea Level Pressure 30.58 in    
Wind  
Wind Speed 15 mph (NW)    
Max Wind Speed 26 mph    
Max Gust Speed 32 mph    
Visibility 10 miles    
Events Snow    
T = Trace of Precipitation, MM = Missing Value Source: NWS Daily Summary

Daily Weather History Graph

Daily Weather History Graph

Search for Another Location

Airport:

Trip Planner

Search our weather history database for the weather conditions in past years. The results will help you decide how hot, cold, wet, or windy it might be!

Date:

Astronomy

Nov. 23, 2013 Rise Set
Actual Time 6:51 AM CST 4:24 PM CST
Civil Twilight 6:20 AM CST 4:55 PM CST
Nautical Twilight 5:46 AM CST 5:29 PM CST
Astronomical Twilight 5:13 AM CST 6:02 PM CST
Moon 9:55 PM CST 11:06 AM CST
Length of Visible Light 10h 34m
Length of Day
9h 33m
Waning Gibbous, 69% of the Moon is Illuminated
Nov 23
Waning Gibbous
Nov 25
Last Quarter
Dec 2
New
Dec 9
First Quarter
Dec 17
Full

Hourly Weather History & Observations

Time (CST) Temp. Windchill Dew Point Humidity Pressure Visibility Wind Dir Wind Speed Gust Speed Precip Events Conditions
12:51 AM 25.0 °F 18.1 °F 19.0 °F 78% 30.44 in 10.0 mi West 5.8 mph - N/A   Partly Cloudy
1:51 AM 25.0 °F 18.1 °F 17.1 °F 72% 30.44 in 10.0 mi West 5.8 mph - N/A   Partly Cloudy
2:51 AM 25.0 °F 16.3 °F 16.0 °F 69% 30.44 in 10.0 mi West 8.1 mph - N/A   Partly Cloudy
3:51 AM 24.1 °F 13.1 °F 15.1 °F 69% 30.43 in 10.0 mi West 11.5 mph - N/A   Partly Cloudy
4:51 AM 24.1 °F 13.7 °F 16.0 °F 71% 30.45 in 10.0 mi WNW 10.4 mph - N/A   Partly Cloudy
5:51 AM 24.1 °F 12.5 °F 16.0 °F 71% 30.47 in 10.0 mi NW 12.7 mph - N/A   Partly Cloudy
6:51 AM 24.1 °F 11.0 °F 12.0 °F 60% 30.48 in 10.0 mi NNW 16.1 mph - N/A   Scattered Clouds
7:51 AM 24.1 °F 10.1 °F 12.9 °F 62% 30.50 in 10.0 mi NNW 18.4 mph 28.8 mph 0.00 in Snow Light Snow
8:51 AM 24.1 °F 9.4 °F 10.0 °F 55% 30.53 in 10.0 mi NNW 20.7 mph 26.5 mph N/A   Scattered Clouds
9:51 AM 23.0 °F 7.6 °F 7.0 °F 50% 30.57 in 10.0 mi North 21.9 mph 29.9 mph N/A   Scattered Clouds
10:51 AM 23.0 °F 8.0 °F 7.0 °F 50% 30.59 in 10.0 mi NNW 20.7 mph 26.5 mph N/A   Scattered Clouds
11:51 AM 24.1 °F 10.1 °F 6.1 °F 46% 30.58 in 10.0 mi NW 18.4 mph - N/A   Partly Cloudy
12:51 PM 23.0 °F 9.6 °F 5.0 °F 46% 30.58 in 10.0 mi NNW 16.1 mph 24.2 mph N/A   Partly Cloudy
1:51 PM 24.1 °F 9.8 °F 5.0 °F 44% 30.59 in 10.0 mi North 19.6 mph 25.3 mph N/A   Partly Cloudy
2:51 PM 23.0 °F 8.3 °F 5.0 °F 46% 30.61 in 10.0 mi North 19.6 mph 27.6 mph N/A   Partly Cloudy
3:51 PM 21.9 °F 8.2 °F 3.9 °F 46% 30.63 in 10.0 mi NNW 16.1 mph 26.5 mph N/A   Partly Cloudy
4:51 PM 19.9 °F 7.3 °F 3.9 °F 50% 30.65 in 10.0 mi NNW 12.7 mph 25.3 mph N/A   Partly Cloudy
5:51 PM 19.0 °F 5.0 °F 3.0 °F 50% 30.68 in 10.0 mi NNW 15.0 mph 20.7 mph N/A   Partly Cloudy
6:51 PM 19.0 °F 5.0 °F 3.0 °F 50% 30.69 in 10.0 mi NNW 15.0 mph 21.9 mph N/A   Partly Cloudy
7:51 PM 18.0 °F 3.6 °F 3.0 °F 52% 30.69 in 10.0 mi North 15.0 mph 19.6 mph N/A   Partly Cloudy
8:51 PM 18.0 °F 1.7 °F 1.9 °F 50% 30.70 in 10.0 mi NNW 19.6 mph 25.3 mph N/A   Partly Cloudy
9:51 PM 17.1 °F 3.0 °F 1.0 °F 50% 30.71 in 10.0 mi NNW 13.8 mph - N/A   Partly Cloudy
10:51 PM 16.0 °F 1.7 °F 1.9 °F 54% 30.70 in 10.0 mi NNW 13.8 mph 23.0 mph N/A   Partly Cloudy
11:51 PM 15.1 °F 3.3 °F 1.9 °F 56% 30.71 in 10.0 mi NNW 9.2 mph - N/A   Partly Cloudy